FENGYUN 1C DEB, 32455

Orbit data source: Space-Track

FENGYUN 1C DEB, 32455 is space debris in SSO originally from a launch on Mon, 10 May 1999 UTC launched from the Taiyaun Space Center, China (TSC). Fengyun 1C debris stems from the Chinese weather satellite Fengyun-1C, which was intentionally destroyed by a Chinese anti-satellite missile in 2007. This event dramatically increased the amount of space debris, with thousands of trackable fragments posing hazards to satellites and human spaceflight. The Fengyun 1C debris cloud has become a focal point in discussions about space sustainability and the need for international regulations to prevent the creation of new debris.

Loading next visibility...
Identifier
32455, 1999-025DBT
Orbit
SSO
Country
Flag of CNCN / PRC
Related business
Manufacturer
Unknown
Mission
Spacecraft
Bus & Motor
Unknown
Mass
Unknown
Launch date (UTC)
1999-05-10 (27 years ago)
Launch vehicle
Unknown
Launch site
Taiyaun Space Center, China (TSC)
Object type
Payload
Rocket body
Debris
Shape & HBR
Unknown shape, 0.1 m
Radar Cross Section
Small (<0.1 m²)

Expand to show TLE details & history
Last TLE update: 12 hours ago

TLE from 12 hours ago
0 FENGYUN 1C DEB
1 32455U 99025DBT 26236.47553615  .00001569  00000-0  98819-3 0  9998
2 32455 101.7242 141.3988 0231700 235.3375 122.5743 13.94088361679631
Epoch: 2026-08-24T11:24Z
TLE epoch observation values (Epoch: 2026-08-24T11:24:46.323Z)
Latitude
0.00003°
Longitude
-2.55092°
Altitude
1,010.822 km
Speed
7.299 km/s
True Right ascension
09h 25m 35s
True Declination
0° 00' 00"
Sunlit
Object was in daylight at epoch
Visualization orbit readout
Latitude
Unknown
Longitude
Unknown
Altitude
Unknown
Speed
Unknown
Apparent Right ascension
Unknown
Apparent Declination
Unknown
Sunlit
N/A
Visualization observer readout
Local Sidereal Time
14:53:34
Azimuth
Unknown
Elevation
Unknown
Doppler factor
Unknown
Orbital elements
Apogee altitude
1,080.601 km
Perigee altitude
742.79 km
Semi-major axis
7,289.833 km
Eccentricity
0.02317
Inclination
101.7242°
RAAN
141.3988°
Arg. of periapsis
235.3375°
True anomaly
124.77681°
Mean anomaly
122.5743°
Eccentric anomaly
123.67902°
Mean motion
3.48712 °/min
Orbital period
103.24 mins
BSTAR
0.00098819
Loading maneuver chart data...
Computing Atmospheric mass density...
Loading historical data...
Loading historical data...
Loading historical data...
Loading historical data...
Loading historical data...
Loading historical data...
Loading historical data...

Documentation

Showing up to 5 results
|